SUZAKU (ASTRO-EII) (28773 NORAD) Tracking and Keplerian Element Data

This shows tracking and keplerian element data for the satellite.

Feedback or suggestion? Click here.




ElementValue
Catalog28773
NameSUZAKU (ASTRO-EII)
Epoch Orbit71743
Epoch Day198.57431288
Epoch Year2018
RAAN250.7036
Inclination31.382
Eccentricity0.0004678
Argument of Perigee358.074
Mean Anonmoly1.9889
Mean Motion15.16609898
Decay Rate5.99E-06
L11 28773U 05025A 18198.57431288 .00000599 00000-0 25532-4 0 9998
L22 28773 31.3820 250.7036 0004678 358.0740 1.9889 15.16609898717431

Live tracking and technical data element details for SUZAKU (ASTRO-EII) (NORAD 28773). SUZAKU (ASTRO-EII) can be tracked NOW for your location showing map with azimuth and elevation plus other details from your city location.

Track the satellite on the map from your city or location and see movement details for azimuth, elevation, latitude, longitude, range, height, and movement on the map or in text.







IsCatalogInMostPopularTable: catalog: 28773, numindb: 21
Update: records affected: 1



GetName: 28773 SUZAKU (ASTRO-EII)

Hit Count: updated at: Thu, 19 Jul 2018 21:27:25 GMT